K6NC Weather Reports


Display with metric or nautical units.
time (UTC)temp
F
wind
direction
speed
MPH
gust
MPH
rain 1hr
in
rain 24hr
in
rain mn
in
humidity
%
barometer
mb
20260508014530 79 236 4.0 9.0 0.00 0.00 0.00 61 1014.1
20260508014012 79 223 5.0 10.0 0.00 0.00 0.00 63 1014.1
20260508013517 79 252 5.0 10.0 0.00 0.00 0.00 61 1014.1
20260508013038 80 240 6.0 10.0 0.00 0.00 0.00 62 1014.0
20260508012514 80 223 5.0 8.0 0.00 0.00 0.00 62 1014.0
20260508012014 80 242 4.0 10.0 0.00 0.00 0.00 60 1014.0
20260508011529 80 230 5.0 10.0 0.00 0.00 0.00 60 1014.0
20260508011010 81 228 4.0 9.0 0.00 0.00 0.00 60 1014.1
20260508010512 81 220 5.0 9.0 0.00 0.00 0.00 60 1014.1
20260508010027 81 259 5.0 9.0 0.00 0.00 0.00 59 1014.1
20260508005518 81 240 3.0 7.0 0.00 0.00 0.00 59 1014.1
20260508005017 81 239 3.0 7.0 0.00 0.00 0.00 57 1014.1
20260508004536 81 227 3.0 8.0 0.00 0.00 0.00 58 1014.1
20260508004013 82 252 4.0 8.0 0.00 0.00 0.00 57 1014.2
20260508003512 82 215 3.0 7.0 0.00 0.00 0.00 59 1014.2
20260508003028 81 306 2.0 7.0 0.00 0.00 0.00 57 1014.2
20260508002511 80 307 3.0 4.0 0.00 0.00 0.00 60 1014.2
20260508002013 81 227 2.0 7.0 0.00 0.00 0.00 60 1014.2
20260508001530 81 0 3.0 7.0 0.00 0.00 0.00 57 1014.2
20260508001011 80 282 2.0 7.0 0.00 0.00 0.00 61 1014.2
20260508000513 82 250 2.0 8.0 0.00 0.00 0.00 57 1014.2
20260508000027 82 275 2.0 8.0 0.00 0.00 0.00 55 1014.2
20260507235512 82 265 4.0 8.0 0.00 0.00 0.00 56 1014.3
20260507235015 82 265 1.0 8.0 0.00 0.00 0.00 58 1014.3
20260507234529 81 255 4.0 8.0 0.00 0.00 0.00 59 1014.3
20260507234012 81 275 2.0 7.0 0.00 0.00 0.00 57 1014.3
20260507233512 81 284 1.0 6.0 0.00 0.00 0.00 58 1014.3
20260507233036 81 294 2.0 7.0 0.00 0.00 0.00 57 1014.3
20260507232512 81 355 3.0 8.0 0.00 0.00 0.00 57 1014.4
20260507232017 82 281 3.0 8.0 0.00 0.00 0.00 58 1014.5
20260507231527 82 269 4.0 8.0 0.00 0.00 0.00 55 1014.5
20260507231016 82 281 1.0 7.0 0.00 0.00 0.00 56 1014.5
20260507230511 81 311 2.0 7.0 0.00 0.00 0.00 55 1014.6
20260507230029 80 300 3.0 7.0 0.00 0.00 0.00 61 1014.7
20260507225512 80 311 2.0 9.0 0.00 0.00 0.00 59 1014.9
20260507225013 81 247 4.0 9.0 0.00 0.00 0.00 54 1015.0
20260507224533 81 298 4.0 7.0 0.00 0.00 0.00 54 1015.0
20260507224013 81 210 2.0 7.0 0.00 0.00 0.00 56 1015.1
20260507223513 81 209 2.0 7.0 0.00 0.00 0.00 58 1015.2
20260507223029 80 317 3.0 7.0 0.00 0.00 0.00 57 1015.2
20260507222511 79 5 1.0 7.0 0.00 0.00 0.00 59 1015.2
20260507222011 80 290 3.0 9.0 0.00 0.00 0.00 58 1015.4
20260507221528 80 300 3.0 9.0 0.00 0.00 0.00 59 1015.5
20260507221015 79 280 4.0 9.0 0.00 0.00 0.00 62 1015.6
20260507220511 80 44 1.0 4.0 0.00 0.00 0.00 59 1015.7
20260507220030 80 0 1.0 4.0 0.00 0.00 0.00 60 1015.8
20260507215512 79 0 1.0 8.0 0.00 0.00 0.00 58 1015.9
20260507215013 80 0 2.0 8.0 0.00 0.00 0.00 55 1016.0
20260507214528 80 249 5.0 8.0 0.00 0.00 0.00 59 1016.0
20260507214016 78 309 2.0 7.0 0.00 0.00 0.00 61 1016.1
20260507213516 78 332 3.0 7.0 0.00 0.00 0.00 62 1016.1
20260507213028 78 325 0.0 9.0 0.00 0.00 0.00 60 1016.2
20260507212511 79 0 2.0 9.0 0.00 0.00 0.00 61 1016.3
20260507212014 79 17 1.0 5.0 0.00 0.00 0.00 62 1016.3
20260507211527 78 50 2.0 7.0 0.00 0.00 0.00 61 1016.4
20260507211011 78 0 2.0 7.0 0.00 0.00 0.00 61 1016.5
20260507210513 78 5 2.0 7.0 0.00 0.00 0.00 60 1016.5
20260507210039 78 235 3.0 7.0 0.00 0.00 0.00 62 1016.6
20260507205512 78 240 3.0 7.0 0.00 0.00 0.00 63 1016.7
20260507205011 78 252 2.0 8.0 0.00 0.00 0.00 62 1016.8
20260507204528 79 242 1.0 8.0 0.00 0.00 0.00 59 1016.8
20260507204013 79 225 5.0 8.0 0.00 0.00 0.00 59 1016.9
20260507203512 78 252 4.0 7.0 0.00 0.00 0.00 63 1016.9
20260507203030 78 263 2.0 8.0 0.00 0.00 0.00 56 1017.1
20260507202513 78 292 3.0 8.0 0.00 0.00 0.00 65 1017.0
20260507202011 76 279 4.0 8.0 0.00 0.00 0.00 63 1017.1
20260507201529 76 250 2.0 8.0 0.00 0.00 0.00 61 1017.1
20260507201011 77 308 1.0 8.0 0.00 0.00 0.00 63 1017.1
20260507200512 76 292 4.0 8.0 0.00 0.00 0.00 65 1017.0
20260507200028 75 325 0.0 8.0 0.00 0.00 0.00 62 1017.2
20260507195517 76 290 1.0 8.0 0.00 0.00 0.00 65 1017.2
20260507195010 76 282 4.0 8.0 0.00 0.00 0.00 66 1017.3
20260507194550 74 293 3.0 7.0 0.00 0.00 0.00 65 1017.4
20260507194011 74 0 0.0 5.0 0.00 0.00 0.00 67 1017.5
20260507193511 74 338 2.0 13.0 0.00 0.00 0.00 64 1017.4
20260507193033 74 336 5.0 13.0 0.00 0.00 0.00 61 1017.5
20260507192509 73 22 3.0 8.0 0.00 0.00 0.00 66 1017.6
20260507192013 74 321 3.0 10.0 0.00 0.00 0.00 65 1017.6
20260507191530 74 237 3.0 10.0 0.00 0.00 0.00 65 1017.6
20260507191010 73 262 3.0 9.0 0.00 0.00 0.00 67 1017.7
20260507190514 74 287 4.0 9.0 0.00 0.00 0.00 67 1017.7
20260507190030 73 272 3.0 9.0 0.00 0.00 0.00 67 1017.7
20260507185510 73 323 5.0 9.0 0.00 0.00 0.00 67 1017.8
20260507185015 74 266 5.0 9.0 0.00 0.00 0.00 65 1017.8
20260507184527 74 229 4.0 9.0 0.00 0.00 0.00 67 1017.9
20260507184010 72 0 2.0 5.0 0.00 0.00 0.00 69 1017.9
20260507183514 72 268 2.0 9.0 0.00 0.00 0.00 70 1017.9
20260507183034 73 248 5.0 9.0 0.00 0.00 0.00 70 1018.1
20260507182512 72 242 3.0 8.0 0.00 0.00 0.00 68 1018.0
20260507182013 72 342 1.0 7.0 0.00 0.00 0.00 71 1018.0
20260507181528 71 300 4.0 10.0 0.00 0.00 0.00 68 1018.0
20260507181011 71 208 4.0 10.0 0.00 0.00 0.00 69 1018.1
20260507180514 71 246 5.0 9.0 0.00 0.00 0.00 69 1018.1
20260507180031 70 231 4.0 9.0 0.00 0.00 0.00 70 1018.1
20260507175510 70 233 3.0 9.0 0.00 0.00 0.00 69 1018.1
20260507175011 70 299 4.0 9.0 0.00 0.00 0.00 70 1018.0
20260507174535 70 227 3.0 7.0 0.00 0.00 0.00 68 1018.0
20260507174014 69 234 4.0 7.0 0.00 0.00 0.00 70 1018.0
20260507173514 69 239 4.0 7.0 0.00 0.00 0.00 70 1018.1
20260507173035 69 211 3.0 7.0 0.00 0.00 0.00 70 1018.1
20260507172512 68 252 3.0 8.0 0.00 0.00 0.00 73 1018.2
20260507172012 68 200 4.0 8.0 0.00 0.00 0.00 73 1018.2
20260507171532 68 240 3.0 7.0 0.00 0.00 0.00 74 1018.3
20260507171012 67 325 2.0 7.0 0.00 0.00 0.00 75 1018.3
20260507170514 67 275 4.0 7.0 0.00 0.00 0.00 77 1018.4
20260507170030 66 275 4.0 7.0 0.00 0.00 0.00 79 1018.4
20260507165514 65 243 4.0 7.0 0.00 0.00 0.00 79 1018.3
20260507165010 65 248 3.0 7.0 0.00 0.00 0.00 79 1018.4
20260507164530 64 245 3.0 7.0 0.00 0.00 0.00 78 1018.4
20260507164013 64 266 4.0 7.0 0.00 0.00 0.00 81 1018.5
20260507163515 63 203 3.0 7.0 0.00 0.00 0.00 83 1018.4
20260507163029 62 240 4.0 7.0 0.00 0.00 0.00 85 1018.5
20260507162512 62 219 2.0 6.0 0.00 0.00 0.00 87 1018.5
20260507162011 61 234 1.0 5.0 0.00 0.00 0.00 90 1018.6
20260507161535 60 236 2.0 4.0 0.00 0.00 0.00 90 1018.5
20260507161012 59 212 1.0 6.0 0.00 0.00 0.00 91 1018.4
20260507160515 59 245 2.0 6.0 0.00 0.00 0.00 91 1018.5
20260507160028 58 268 2.0 6.0 0.00 0.00 0.00 92 1018.6
20260507155513 58 213 1.0 6.0 0.00 0.00 0.00 92 1018.5
20260507155013 57 188 2.0 7.0 0.00 0.00 0.00 92 1018.6
20260507154535 56 283 3.0 8.0 0.00 0.00 0.00 92 1018.6
20260507154010 56 254 3.0 8.0 0.00 0.00 0.00 92 1018.7
20260507153512 56 283 3.0 7.0 0.00 0.00 0.00 92 1018.7
20260507153038 56 234 3.0 8.0 0.00 0.00 0.00 92 1018.7
20260507152510 55 246 3.0 8.0 0.00 0.00 0.00 92 1018.7
20260507152012 55 302 4.0 8.0 0.00 0.00 0.00 92 1018.6
20260507151530 55 261 4.0 8.0 0.00 0.00 0.00 92 1018.6
20260507151011 55 241 3.0 8.0 0.00 0.00 0.00 92 1018.5
20260507150511 55 221 5.0 8.0 0.00 0.00 0.00 92 1018.6
20260507150032 55 233 4.0 8.0 0.00 0.00 0.00 92 1018.6
20260507145513 55 227 4.0 8.0 0.00 0.00 0.00 92 1018.6
20260507145012 55 242 4.0 8.0 0.00 0.00 0.00 92 1018.6
20260507144530 55 251 3.0 7.0 0.00 0.00 0.00 92 1018.7
20260507144013 54 242 4.0 9.0 0.00 0.00 0.00 92 1018.6
20260507143511 54 277 5.0 9.0 0.00 0.00 0.00 92 1018.6
20260507143029 54 269 5.0 9.0 0.00 0.00 0.00 92 1018.5
20260507142512 54 252 4.0 7.0 0.00 0.00 0.00 92 1018.4
20260507142012 54 244 3.0 7.0 0.00 0.00 0.00 92 1018.3
20260507141528 54 261 3.0 7.0 0.00 0.00 0.00 92 1018.4
20260507141013 53 238 4.0 7.0 0.00 0.00 0.00 92 1018.4
20260507140511 53 225 3.0 6.0 0.00 0.00 0.00 92 1018.3
20260507140030 53 236 2.0 4.0 0.00 0.00 0.00 92 1018.4
20260507135512 53 209 2.0 3.0 0.00 0.00 0.00 92 1018.2
20260507135011 53 217 1.0 3.0 0.00 0.00 0.00 91 1018.2
20260507134531 52 192 1.0 3.0 0.00 0.00 0.00 91 1018.2
20260507134010 52 192 1.0 3.0 0.00 0.00 0.00 91 1018.2
20260507133513 52 192 1.0 3.0 0.00 0.00 0.00 91 1018.1
20260507133028 52 192 1.0 3.0 0.00 0.00 0.00 91 1018.1
20260507132512 53 0 1.0 3.0 0.00 0.00 0.00 91 1018.0
20260507132011 53 252 1.0 2.0 0.00 0.00 0.00 91 1018.0
20260507131527 53 252 0.0 2.0 0.00 0.00 0.00 91 1018.0
20260507131012 53 0 0.0 3.0 0.00 0.00 0.00 91 1017.9
20260507130516 53 252 1.0 3.0 0.00 0.00 0.00 91 1018.0
20260507130038 53 252 2.0 3.0 0.00 0.00 0.00 91 1017.9
20260507125513 53 269 1.0 3.0 0.00 0.00 0.00 91 1017.8
20260507125017 53 275 1.0 3.0 0.00 0.00 0.00 91 1017.8
20260507124529 53 0 1.0 3.0 0.00 0.00 0.00 91 1017.8
20260507124010 53 259 1.0 3.0 0.00 0.00 0.00 91 1017.9
20260507123511 53 277 2.0 3.0 0.00 0.00 0.00 91 1017.9
20260507123030 53 271 2.0 4.0 0.00 0.00 0.00 91 1017.9
20260507122511 52 269 2.0 4.0 0.00 0.00 0.00 91 1017.9
20260507122014 52 272 1.0 4.0 0.00 0.00 0.00 91 1017.9
20260507121530 52 266 1.0 3.0 0.00 0.00 0.00 91 1017.9
20260507121012 52 266 1.0 3.0 0.00 0.00 0.00 91 1017.9
20260507120513 52 266 2.0 3.0 0.00 0.00 0.00 91 1017.8
20260507120027 52 267 2.0 3.0 0.00 0.00 0.00 90 1017.9
20260507115512 52 271 1.0 3.0 0.00 0.00 0.00 90 1017.9
20260507115016 52 0 2.0 3.0 0.00 0.00 0.00 90 1017.8
20260507114529 52 176 0.0 3.0 0.00 0.00 0.00 90 1017.9
20260507114018 52 0 0.0 1.0 0.00 0.00 0.00 90 1017.9
20260507113510 52 0 0.0 3.0 0.00 0.00 0.00 90 1017.9
20260507113030 52 0 0.0 3.0 0.00 0.00 0.00 90 1017.8
20260507112514 52 0 0.0 3.0 0.00 0.00 0.00 89 1017.9
20260507112011 53 0 0.0 2.0 0.00 0.00 0.00 89 1017.9
20260507111528 53 0 0.0 2.0 0.00 0.00 0.00 89 1017.8
20260507111013 53 80 0.0 2.0 0.00 0.00 0.00 89 1017.8
20260507110513 53 0 0.0 0.0 0.00 0.00 0.00 89 1017.8
20260507110031 53 0 0.0 0.0 0.00 0.00 0.00 89 1017.8
20260507105513 53 0 0.0 0.0 0.00 0.00 0.00 89 1017.7
20260507105011 53 0 0.0 0.0 0.00 0.00 0.00 89 1017.7
20260507104530 53 0 0.0 0.0 0.00 0.00 0.00 89 1017.8
20260507104012 53 0 0.0 0.0 0.00 0.00 0.00 89 1017.8
20260507103512 54 0 0.0 0.0 0.00 0.00 0.00 89 1017.8
20260507102515 54 0 0.0 0.0 0.00 0.00 0.00 90 1017.8
20260507102011 54 0 0.0 0.0 0.00 0.00 0.00 89 1017.8
20260507101531 54 0 0.0 0.0 0.00 0.00 0.00 89 1017.8
20260507101012 54 0 0.0 0.0 0.00 0.00 0.00 89 1017.8
20260507100511 54 0 0.0 0.0 0.00 0.00 0.00 89 1017.8
20260507100034 55 0 0.0 1.0 0.00 0.00 0.00 89 1017.7
20260507095512 55 0 0.0 2.0 0.00 0.00 0.00 90 1017.7
20260507095014 55 0 0.0 3.0 0.00 0.00 0.00 90 1017.8
20260507094531 55 263 0.0 3.0 0.00 0.00 0.00 89 1017.7
20260507094010 55 0 0.0 2.0 0.00 0.00 0.00 89 1017.9
20260507093512 55 0 0.0 3.0 0.00 0.00 0.00 89 1017.8
20260507093030 55 205 1.0 3.0 0.00 0.00 0.00 89 1017.9
20260507092518 55 171 0.0 2.0 0.00 0.00 0.00 89 1017.9
20260507092012 55 0 0.0 0.0 0.00 0.00 0.00 89 1017.8
20260507091011 55 0 0.0 3.0 0.00 0.00 0.00 88 1017.9
20260507090514 55 0 0.0 3.0 0.00 0.00 0.00 88 1017.9
20260507090031 56 186 1.0 3.0 0.00 0.00 0.00 88 1017.9
20260507085512 55 166 1.0 3.0 0.00 0.00 0.00 88 1017.9
20260507085012 55 165 0.0 2.0 0.00 0.00 0.00 88 1017.9
20260507084531 55 185 0.0 2.0 0.00 0.00 0.00 88 1018.0
20260507084011 56 192 0.0 2.0 0.00 0.00 0.00 87 1017.9
20260507083515 56 0 0.0 0.0 0.00 0.00 0.00 87 1018.0
20260507083028 56 0 0.0 2.0 0.00 0.00 0.00 88 1018.0
20260507082511 56 0 0.0 2.0 0.00 0.00 0.00 88 1018.0
20260507082013 55 169 0.0 2.0 0.00 0.00 0.00 89 1018.0
20260507081527 55 169 0.0 1.0 0.00 0.00 0.00 89 1018.0
20260507081012 55 0 0.0 1.0 0.00 0.00 0.00 89 1018.0
20260507080511 55 0 0.0 2.0 0.00 0.00 0.00 89 1017.9
20260507080036 55 0 0.0 2.0 0.00 0.00 0.00 89 1017.9
20260507075511 55 0 0.0 1.0 0.00 0.00 0.00 89 1017.8
20260507075014 55 0 0.0 3.0 0.00 0.00 0.00 89 1017.8
20260507074531 55 0 0.0 3.0 0.00 0.00 0.00 89 1017.8
20260507074014 55 98 2.0 3.0 0.00 0.00 0.00 88 1017.7
20260507073512 56 89 1.0 3.0 0.00 0.00 0.00 87 1017.8
20260507073029 56 0 0.0 0.0 0.00 0.00 0.00 87 1017.7
20260507072513 56 0 0.0 0.0 0.00 0.00 0.00 86 1017.7
20260507072017 57 0 0.0 0.0 0.00 0.00 0.00 85 1017.7
20260507071557 57 0 0.0 0.0 0.00 0.00 0.00 84 1017.8
20260507071011 58 0 0.0 3.0 0.00 0.00 0.00 84 1017.9
20260507070514 58 0 0.0 3.0 0.00 0.00 0.00 82 1017.8
20260507070030 59 175 1.0 4.0 0.00 0.00 0.00 83 1017.8
20260507065511 59 219 1.0 4.0 0.00 0.00 0.00 83 1017.8
20260507065010 58 0 0.0 4.0 0.00 0.00 0.00 83 1017.9
20260507064527 59 231 2.0 4.0 0.00 0.00 0.00 83 1017.8
20260507064015 59 219 2.0 5.0 0.00 0.00 0.00 83 1017.8
20260507063510 59 233 3.0 5.0 0.00 0.00 0.00 83 1017.8
20260507063032 59 216 1.0 4.0 0.00 0.00 0.00 83 1017.8
20260507062519 59 225 2.0 5.0 0.00 0.00 0.00 83 1017.8
20260507062014 59 213 2.0 5.0 0.00 0.00 0.00 83 1017.8
20260507061529 59 210 2.0 5.0 0.00 0.00 0.00 84 1017.8
20260507061013 59 0 1.0 5.0 0.00 0.00 0.00 83 1017.8
20260507060512 60 208 3.0 6.0 0.00 0.00 0.00 83 1017.8
20260507060030 60 236 3.0 6.0 0.00 0.00 0.00 83 1017.8
20260507055514 60 213 2.0 5.0 0.00 0.00 0.00 84 1017.8
20260507055014 60 219 2.0 5.0 0.00 0.00 0.00 83 1017.7
20260507054529 60 0 0.0 4.0 0.00 0.00 0.00 83 1017.6
20260507054015 61 242 1.0 4.0 0.00 0.00 0.00 82 1017.7
20260507053512 61 236 2.0 4.0 0.00 0.00 0.00 82 1017.7
20260507053044 61 232 1.0 4.0 0.00 0.00 0.00 82 1017.7
20260507052511 61 223 2.0 4.0 0.00 0.00 0.00 82 1017.6
20260507052010 61 224 2.0 4.0 0.00 0.00 0.00 82 1017.6
20260507051538 61 227 2.0 7.0 0.00 0.00 0.00 81 1017.6
20260507051010 62 217 3.0 7.0 0.00 0.00 0.00 81 1017.5
20260507050514 62 247 3.0 8.0 0.00 0.00 0.00 81 1017.6
20260507050035 62 244 4.0 8.0 0.00 0.00 0.00 81 1017.6
20260507045514 62 241 3.0 8.0 0.00 0.00 0.00 81 1017.6
20260507045014 62 256 4.0 8.0 0.00 0.00 0.00 81 1017.5
20260507044531 62 237 4.0 8.0 0.00 0.00 0.00 81 1017.5
20260507044012 62 247 4.0 7.0 0.00 0.00 0.00 81 1017.4
20260507043512 63 218 3.0 7.0 0.00 0.00 0.00 81 1017.5
20260507043030 63 240 2.0 9.0 0.00 0.00 0.00 80 1017.5
20260507042510 63 258 3.0 10.0 0.00 0.00 0.00 80 1017.4
20260507042012 64 248 5.0 10.0 0.00 0.00 0.00 79 1017.3
20260507041529 64 261 5.0 10.0 0.00 0.00 0.00 79 1017.3
20260507041013 64 253 6.0 10.0 0.00 0.00 0.00 79 1017.2
20260507040514 64 245 5.0 10.0 0.00 0.00 0.00 80 1017.2
20260507040030 64 267 5.0 10.0 0.00 0.00 0.00 80 1017.1
20260507035512 65 255 4.0 8.0 0.00 0.00 0.00 79 1017.1
20260507035012 65 249 4.0 8.0 0.00 0.00 0.00 78 1017.0
20260507034536 66 248 4.0 9.0 0.00 0.00 0.00 78 1017.0
20260507034013 66 253 5.0 11.0 0.00 0.00 0.00 77 1016.9
20260507033513 66 252 7.0 11.0 0.00 0.00 0.00 76 1016.9
20260507033039 66 237 0.0 2.0 0.00 0.00 0.00 76 1016.8
20260507032512 67 227 0.0 3.0 0.00 0.00 0.00 77 1016.8
20260507032016 67 0 1.0 3.0 0.00 0.00 0.00 76 1016.6
20260507031527 67 336 0.0 2.0 0.00 0.00 0.00 74 1016.5
20260507031017 68 0 0.0 2.0 0.00 0.00 0.00 74 1016.5
20260507030513 68 0 0.0 2.0 0.00 0.00 0.00 73 1016.6
20260507030029 69 336 0.0 2.0 0.00 0.00 0.00 71 1016.5
20260507025513 69 0 0.0 0.0 0.00 0.00 0.00 68 1016.5
20260507025015 69 0 0.0 0.0 0.00 0.00 0.00 69 1016.5
20260507024533 70 0 0.0 0.0 0.00 0.00 0.00 68 1016.4
20260507024012 70 0 0.0 0.0 0.00 0.00 0.00 68 1016.4
20260507023513 70 0 0.0 0.0 0.00 0.00 0.00 69 1016.4
20260507023034 70 0 0.0 0.0 0.00 0.00 0.00 70 1016.4
20260507022511 70 0 0.0 0.0 0.00 0.00 0.00 69 1016.3
20260507022010 71 0 0.0 1.0 0.00 0.00 0.00 68 1016.3
20260507021528 71 0 0.0 2.0 0.00 0.00 0.00 67 1016.2
20260507021015 71 0 0.0 2.0 0.00 0.00 0.00 65 1016.3
20260507020512 71 336 0.0 2.0 0.00 0.00 0.00 64 1016.3
20260507020030 71 0 0.0 2.0 0.00 0.00 0.00 66 1016.4
20260507015512 71 0 0.0 2.0 0.00 0.00 0.00 67 1016.3
20260507015021 71 333 0.0 3.0 0.00 0.00 0.00 65 1016.4